Regional Weather Roundup
Issued by NWS Wakefield, VA

Home | Current Version | Previous Version | Graphics & Text | Print | Product List | Glossary On
Versions: 1 2 3 4 5 6 7 8 9 10 11 12 13 14 15 16 17 18 19 20 21 22 23 24 25 26 27 28 29 30 31 32 33 34 35 36 37 38 39 40 41 42 43 44 45 46 47 48 49 50
000
ASUS41 KAKQ 041610
RWRAKQ

REGIONAL WEATHER ROUNDUP
NATIONAL WEATHER SERVICE WAKEFIELD VA
1100 AM EST WED MAR 04 2015

Note: "fair" indicates few or no clouds below 12,000 feet with no
significant weather and/or obstructions to visibility. * = Denotes
station may not report precipitation (e.g., rain,snow,etc.),
thunder or fog.

VAZ042-051-052>054-056-041700-
NORTHERN VIRGINIA

CITY           SKY/WX    TMP DP  RH WIND       PRES   REMARKS
WASH NATIONAL  CLOUDY    45  40  82 S3        29.93F
DULLES         CLOUDY    40  38  93 CALM      29.91S FOG
FORT BELVOIR   LGT RAIN  43  41  94 CALM      29.93R
QUANTICO       LGT RAIN  39  37  92 SW10      29.95R FOG
FREDERICKSBRG* NOT AVBL
STAFFORD*      NOT AVBL
WARRENTON      NOT AVBL
CULPEPER*      NOT AVBL
MANASSAS*      CLOUDY    41  41 100 CALM      29.92S
LEESBURG*      NOT AVBL
WINCHESTER     CLOUDY    50  43  76 S5        29.88F
FRONT ROYAL*   CLOUDY    46  45  93 S5        29.88F
LURAY*         CLOUDY    48  48 100 CALM      29.91S
$$

VAZ048-049-060>072-079>083-041700-
CENTRAL AND SOUTH CENTRAL VIRGINIA

CITY           SKY/WX    TMP DP  RH WIND       PRES   REMARKS
RICHMOND       LGT RAIN  54  51  90 SW5       29.96R FOG
CHESTERFIELD*  CLOUDY    55  45  67 W6        29.97R
PETERSBURG*    NOT AVBL
HANOVER        LGT RAIN  53  50  89 W6        29.97R FOG
TAPPAHANNOCK*  LGT RAIN  48  46  93 CALM      29.97S VSB 1/2
QUINTON*       CLOUDY    52  51  95 SW5       29.96R
CHARLOTTSVILLE CLOUDY    44  39  82 CALM      29.93F
GORDONSVILLE*  NOT AVBL
ORANGE*        NOT AVBL
LOUISA*        NOT AVBL
BUMPASS*       CLOUDY    47  46  97 CALM      29.94F
FARMVILLE*     LGT RAIN  54  54 100 W3        29.94S
CREWE*         CLOUDY    54  51  90 SW3       29.95S
FORT PICKETT*  CLOUDY    51  50  98 CALM      29.96S
CHASE CITY*    NOT AVBL
CLARKSVILLE*   PTSUNNY   61  55  82 S9        29.94S
SOUTH HILL*    CLOUDY    55  52  91 SW12G17   30.01F
LAWRENCEVILLE* CLOUDY    56  54  91 MISG      29.95F
EMPORIA*       NOT AVBL
$$

VAZ088>098-041700-
SOUTHEAST VIRGINIA

CITY           SKY/WX    TMP DP  RH WIND       PRES   REMARKS
NORFOLK        CLOUDY    57  53  86 W7G17     29.97S
VIRGINIA BEACH CLOUDY    61  58  90 W12       29.97S
NORFOLK NAVAL  CLOUDY    55  51  86 W8        29.99R FOG
WEST POINT*    CLOUDY    53  51  93 CALM      29.98S
SALUDA*        CLOUDY    50  49  97 CALM      29.95F
NEWPORT NEWS   FOG       53  51  93 SW9       29.98R VSB 1/2
LANGLEY AFB    CLOUDY    52  51  97 W9        29.97S FOG
FORT EUSTIS    FOG       50 N/A N/A SW2       29.96S VSB 3/4
WILLIAMSBURG*  NOT AVBL
HR EXEC AP*    CLOUDY    55  54  94 SW9       30.00S
FRANKLIN*      NOT AVBL
WAKEFIELD      CLOUDY    54  52  93 SW7       29.97F
$$

VAZ020-022-025-037-045-041700-
WEST CENTRAL AND SOUTHWEST VIRGINIA

CITY           SKY/WX    TMP DP  RH WIND       PRES   REMARKS
STAUNTON*      CLOUDY    47  46  96 S5        29.93F FOG
WAYNESBORO*    CLOUDY    53  49  86 SW5       29.91F
HOT SPRINGS VA NOT AVBL
LYNCHBURG      LGT RAIN  49  49 100 SW3       29.96S VSB 1
DANVILLE       CLOUDY    54  50  86 W7        29.95S
SOUTH BOSTON*  NOT AVBL
MARTINSVILLE   NOT AVBL
ROANOKE        CLOUDY    52  49  89 NE6       29.96S
BLACKSBURG     DRIZZLE   50  47  90 CALM      29.97F
DUBLIN*        NOT AVBL
MARION*        NOT AVBL
HILLSVILLE*    CLOUDY    54  54  97 N7        29.93F
RICHLANDS*     HVY RAIN  47  46  93 NE3       29.94S
WISE*          NOT AVBL
ABINGDON*      FOG       54  54 100 CALM      29.92S VSB 1/4
$$

MDZ021>025-VAZ099-100-041700-
SOUTHERN MARYLAND AND THE DELMARVA PENINSULA

CITY           SKY/WX    TMP DP  RH WIND       PRES   REMARKS
PATUXENT RIVER CLOUDY    45  43  93 SE5       29.95F FOG
BAY BRIDGE APT   N/A     41  41 100 CALM      29.94S FOG
LEONARDTOWN    CLOUDY    46  45  93 S3        29.95F
DOVER          NOT AVBL
GEORGETOWN     CLOUDY    48  46  93 VRB6      29.94F
EASTON         CLOUDY    46  46 100 S5        29.95F FOG
CAMBRIDGE      CLOUDY    46  43  87 CALM      29.94F
SALISBURY      CLOUDY    51  48  89 S6        29.93F
OCEAN CITY     CLOUDY    45  44  97 SW5       29.97R
WALLOPS ISLAND FOG       44  44 100 SW6       29.98R VSB 1/2
ACCOMACK*      CLOUDY    50  46  87 SW8       29.96F FOG
$$

NCZ012>017-030>032-041700-
NORTH CENTRAL AND EASTERN NORTH CAROLINA

CITY           SKY/WX    TMP DP  RH WIND       PRES   REMARKS
ROANOKE RAPIDS CLOUDY    59  54  82 SW17G23   29.98F
RALEIGH        FOG       54  52  93 SW16      30.01F VSB 1/2
ELIZABETH CITY CLOUDY    60  58  92 SW17G24   30.01R
AHOSKIE*       NOT AVBL
EDENTON*       CLOUDY    55  55 100 W9        30.03R FOG
CURRITUCK*     CLOUDY    59  57  94 SW15G23   30.00S
KILL DEVIL HLS NOT AVBL
MANTEO         MOSUNNY   61  57  88 SW7       30.02S
CAPE HATTERAS  FOG       56  56 100 SW12      30.05F VSB 1/4
TARBORO*       NOT AVBL
GOLDSBORO      CLOUDY    57  57 100 SW9       30.02S
WASHINGTON     MOSUNNY   69  62  78 W13G21    30.02S
GREENVILLE     NOT AVBL
NEW BERN       SUNNY     78  62  57 SW13G26   30.03F
WILMINGTON     PTSUNNY   72  65  78 SW15G31   30.07F
$$

VAZ048-041700-
ELSEWHERE

CITY           SKY/WX    TMP DP  RH WIND       PRES   REMARKS
HARRISBURG PA  CLOUDY    39  37  92 NE3       29.87F FOG
BALTIMORE      CLOUDY    41  38  89 CALM      29.91F FOG
ANNAPOLIS      LGT RAIN  37  36  96 CALM      29.93F FOG
ANDREWS AFB    CLOUDY    44  43  96 SW5       29.91S
PHILADELPHIA   CLOUDY    39  37  92 SW8       29.91R FOG
HENDERSON NC   CLOUDY    55  54  95 SW17      29.96S FOG
GREENSBORO     PTSUNNY   61  57  87 SW17      29.94F
ROCKY MOUNT    CLOUDY    52  52 100 S10       30.02F FOG
$$

VAZ100-041700-
MARINE

STATION/POSITION TIME  TEMP    WIND        PRES    WAVE   SWELL
                       AIR SEA DIR/SP/G            HT/PER HT/PER
                 (UTC) (F)     (DEG/KT/KT) (MB)    (FT/S) (FT/S)
BRANDYWINE LGT   1600   43 31  230/ 10/ 11 1013.6F
CAPE MAY NJ      1600   40 34  220/  4/  5 1013.7S
LEWES DE         1600   49 31  250/  6/ 10 1013.4F
15NM E FENWICK I 1600   36 35              1014.2R   5/ 8
OCEAN-CITY-INLET 1600   41 33  200/  6/  7 1013.9F
WACHAPREAGUE VA  1600   47 36  210/  6/  7 1014.8S
THOMAS POINT MD  1500   40 32  180/  8/  9 1014.9F
COVE POINT MD    1600   37     180/  7/  9 1013.7S
SOLOMONS ISLAND  1600      33                N/A
BISHOPS HEAD MD  1600   38 34   CALM  /  3 1014.1R
CAMBRIDGE MD     1600   45 32  160/  4/  5 1013.5F
LEWISETTA VA     1600   44 33     CALM     1014.0F
RAPPAHANNOCK LGT 1600          170/ 13/ 13 1015.4F
STINGRAY PT      1600   37     170/  8/  8   N/A
YORK RVR RNG VA  1600   47     230/ 10/ 11 1014.3R
YORKTOWN VA      1600   51 35  240/  5/  9 1014.5S
DOMINION TERM VA 1600   45     250/  8/ 10 1015.2F
KIPTOPEKE VA     1600      38  240/  8/  9   N/A
CHES BAY BRIDGE  1600   50 33  260/  9/ 11 1014.9S
CAPE HENRY VA    1600   56     240/  9/ 12 1013.8F
CHESAPEAKE LGHT  1500   48     240/ 17/ 18 1015.8R
WILLOUBY STN VA  1600   46     260/ 11/ 12 1015.5S
S CRANEY ISL VA  1600          250/  9/ 13 1015.0S
CAPE HENRY BUOY  1600      36                N/A     4/ 8
1ST LANDING BUOY 1600   44     290/  8/ 10 1015.1R
OFFSHORE WE BUOY 1600      37                N/A     5/ 7   3/ 7
64NM E OF VA BCH 1600   54 54  230/ 12/ 16 1015.7R   6/ 8   5/ 8
DUCK PIER NC     1600   57 35  240/ 11/ 13 1015.4R
44100 DUCK FRF   1600      37                N/A     5/ 8   2/11
44056 DUCK FRF   1600      36                N/A     3/ 8   2/11
OREGON INLET NC  1600   50 44  200/ 17/ 20 1016.7S
HATTERAS NC      1600   56 45  230/ 12/ 17 1017.9S
CAPE LOOKOUT NC  1500   62     220/ 12/ 15 1018.4F
$$



USA.gov is the U.S. government's official web portal to all federal, state and local government web resources and services.